GFSNIL_prec_cthk_000.txt.gz
RH
59 59 57 64 62 73 66 69 52 49 44 42 41 34 32 29 31 34 38 41 44 47
65 61 66 60 44 43 41 47 54 57 48 43 33 33 36 41 37 33 35 34 33 37
52 48 42 36 39 49 54 59 67 73 54 45 50 53 55 51 32 34 36 35 33 35
37 39 42 41 41 51 57 77 73 70 70 74 67 55 52 48 34 38 40 42 45 46
38 39 44 43 41 50 57 68 77 86 82 74 61 52 49 44 43 40 40 41 44 45
26 26 29 44 41 45 65 76 89 73 76 65 59 54 50 42 41 43 48 50 51 51
24 21 23 36 47 63 73 72 68 80 75 67 58 50 48 46 44 47 51 54 59 61
18 19 24 34 40 48 57 59 72 81 74 62 52 51 52 48 48 51 51 54 67 71
20 20 22 27 36 49 52 64 80 87 73 52 49 53 49 49 49 46 53 67 72 75
20 21 26 33 45 56 63 76 88 75 63 50 53 49 49 47 46 48 65 74 80 79
23 25 30 43 55 79 84 86 75 69 57 51 49 47 48 48 43 56 71 83 85 88
28 30 38 52 59 65 70 73 77 64 54 49 46 47 47 42 39 59 82 88 91 95
32 40 47 58 65 70 73 81 74 60 48 48 49 47 44 38 39 65 80 89 93 96
38 46 55 62 68 74 84 88 71 53 48 48 46 45 43 42 44 69 83 90 93 95

GFSNIL_prec_cthk_003.txt.gz
RH
57 61 58 56 53 45 39 34 37 44 53 55 64 60 51 48 50 55 54 41 38 38
57 54 48 44 39 35 33 35 43 60 64 69 76 66 70 68 64 59 49 48 42 37
45 44 40 36 31 32 38 45 49 43 53 62 67 76 68 69 70 57 52 46 42 42
32 31 29 24 21 26 37 45 44 45 48 73 72 70 69 63 62 49 42 42 43 47
31 26 20 16 18 29 42 45 51 62 60 69 71 63 64 66 52 46 45 44 47 48
26 21 18 16 18 28 34 39 47 49 50 56 62 64 59 47 44 46 47 49 50 49
24 21 20 20 22 27 30 37 38 44 46 59 67 63 47 47 45 48 52 52 47 44
26 23 23 21 22 29 38 43 42 45 56 71 69 54 49 47 46 52 50 46 43 55
28 25 24 22 26 34 45 46 46 58 72 71 61 53 49 47 48 49 47 42 46 66
30 27 26 25 31 43 53 56 65 72 65 67 65 55 46 46 46 44 43 40 57 76
29 29 30 32 38 47 55 73 72 66 72 74 62 50 43 42 41 40 40 42 68 83
31 31 34 39 47 53 59 65 68 73 80 75 57 48 40 36 38 41 39 46 78 90
33 32 37 45 49 58 65 71 77 82 80 61 53 44 37 39 42 42 38 55 86 92
36 38 43 50 57 65 71 72 67 60 61 56 47 43 39 42 45 45 42 61 88 93

GFSNIL_prec_cthk_006.txt.gz
RH
55 54 51 48 42 37 32 28 26 29 33 40 39 47 44 59 65 66 56 56 55 55
50 45 39 35 31 25 21 18 24 34 39 59 52 60 63 59 55 57 61 63 57 56
47 42 34 28 23 19 15 20 31 42 49 56 61 61 55 53 55 56 57 56 50 49
42 35 28 23 20 17 18 28 37 44 44 45 45 39 42 43 48 53 50 45 41 44
38 32 27 23 20 18 20 27 37 37 39 40 37 43 48 56 56 49 42 40 39 43
35 32 28 24 21 19 23 33 37 40 43 38 44 51 59 59 48 41 37 38 43 45
36 34 28 23 22 23 29 33 35 42 41 44 54 60 63 59 47 41 40 45 46 44
37 32 26 25 26 25 28 30 42 41 42 49 61 66 64 63 54 43 41 43 42 42
35 30 26 27 27 30 35 42 47 47 50 65 69 66 72 69 50 42 39 37 38 39
34 29 28 29 32 34 40 48 54 59 67 73 69 74 80 64 47 38 35 41 41 39
32 31 30 31 34 39 45 52 59 65 69 73 78 80 68 50 40 36 39 43 43 42
33 33 32 32 38 43 50 59 63 69 75 75 67 57 51 43 39 38 45 45 46 47
34 36 35 38 45 50 55 62 66 66 59 53 56 53 47 42 39 45 45 46 48 54
36 36 41 44 50 54 57 59 58 58 55 57 54 48 44 41 46 47 45 45 49 57

GFSNIL_prec_cthk_009.txt.gz
RH
59 59 50 44 38 32 27 22 19 17 23 34 39 42 52 53 48 43 43 39 44 44
56 49 47 41 33 27 23 20 19 22 30 36 47 44 53 46 31 30 33 41 49 46
52 47 41 35 30 25 22 21 23 29 36 49 46 42 35 31 33 38 44 46 42 37
48 42 37 33 28 25 24 22 26 35 46 45 42 47 34 39 43 47 47 45 39 37
46 40 37 33 29 26 24 25 30 39 41 40 42 46 42 50 54 57 55 47 40 39
43 41 40 35 29 27 26 26 31 37 40 41 42 42 50 56 60 64 61 58 45 41
44 44 41 33 29 28 27 28 32 36 44 48 46 49 58 65 64 68 71 58 44 40
48 45 39 32 28 28 29 33 34 41 46 46 53 57 67 69 72 74 69 48 38 35
46 42 36 31 29 29 32 35 39 45 51 57 65 68 75 76 77 73 49 38 37 38
44 38 33 31 31 30 32 38 44 50 57 64 71 74 76 75 60 47 41 38 38 44
38 35 32 32 31 31 34 39 48 53 60 62 64 64 57 51 45 42 39 40 45 47
35 32 32 32 33 33 38 46 49 53 57 56 55 51 51 46 42 40 42 45 46 48
30 28 30 31 35 38 44 49 50 53 53 55 52 51 48 45 41 44 47 44 42 45
27 27 27 30 39 43 48 47 51 55 56 56 54 52 50 46 46 49 47 41 35 44

GFSNIL_prec_cthk_015.txt.gz
RH
65 71 78 66 44 43 39 34 33 37 39 44 43 42 42 45 56 55 59 50 47 48
65 65 62 54 50 40 36 34 37 40 45 45 40 42 53 57 54 50 53 50 54 60
64 67 63 48 40 40 38 39 43 39 36 40 39 53 51 49 50 54 62 59 58 65
60 60 48 41 43 43 42 48 43 39 36 37 45 44 43 45 49 62 68 56 65 69
59 51 45 48 50 48 53 48 44 42 42 46 44 37 47 52 49 59 63 67 72 74
58 51 53 53 55 60 54 47 44 45 47 45 42 41 53 57 53 58 66 72 75 75
55 55 54 58 65 60 52 46 42 48 46 43 44 43 48 52 56 63 70 75 75 72
57 58 63 65 63 56 50 44 45 49 47 47 50 47 44 51 59 64 65 66 59 46
63 67 67 61 57 52 47 48 50 49 50 47 62 52 48 45 49 51 53 49 43 43
72 70 62 57 51 48 50 54 51 49 46 51 59 49 44 43 46 48 47 46 45 46
75 62 57 52 45 49 52 50 49 49 46 52 51 48 45 50 48 47 48 45 46 51
65 60 54 48 46 49 46 48 50 53 49 51 51 50 52 49 45 46 48 48 52 49
63 54 51 55 52 49 50 49 51 50 44 48 51 52 53 47 47 49 51 53 53 49
58 55 59 49 47 50 48 50 53 46 46 52 54 56 50 50 49 52 51 53 48 49

GFSNIL_prec_cthk_018.txt.gz
RH
54 62 61 58 52 49 44 42 39 37 34 37 45 43 37 36 41 43 48 49 54 59
60 62 63 53 47 49 50 38 39 37 38 43 46 45 38 46 44 47 49 50 57 65
66 68 62 51 50 52 47 41 42 42 47 44 39 45 50 49 44 48 47 53 65 67
66 64 58 54 56 52 45 45 49 50 47 45 45 49 43 37 42 45 45 57 64 62
66 66 62 57 56 50 51 58 54 49 46 51 53 52 48 48 53 47 56 53 61 66
68 71 69 65 57 55 62 64 54 48 48 55 48 42 42 50 55 52 52 54 61 63
72 67 70 60 55 67 72 64 53 51 50 61 52 50 53 57 53 47 49 51 55 58
73 73 64 65 71 76 69 60 58 55 61 60 60 61 66 58 48 43 42 47 48 46
74 73 76 79 71 65 64 60 58 64 61 65 67 59 62 56 45 35 37 41 38 38
77 81 84 71 73 67 63 65 71 65 65 63 61 49 53 47 43 43 45 40 36 39
86 85 77 78 67 59 70 67 64 66 67 63 59 54 49 49 49 49 43 41 41 44
86 85 76 70 66 74 64 65 66 63 62 62 53 48 48 52 56 47 45 43 45 48
88 83 69 70 71 67 66 62 62 59 58 52 44 46 50 59 55 47 46 46 47 48
81 73 77 71 69 66 60 62 56 51 44 43 43 48 58 63 52 49 48 47 48 51

GFSNIL_prec_cthk_024.txt.gz
RH
66 67 68 71 74 73 73 74 66 72 55 53 48 47 48 47 52 51 51 53 52 52
68 71 72 75 74 73 74 77 75 56 56 59 49 49 49 51 53 52 48 49 52 57
67 70 73 73 79 83 78 70 59 60 58 54 53 59 62 58 57 55 55 58 61 67
71 72 75 82 77 72 70 75 69 59 63 64 68 61 57 63 59 59 65 67 64 69
66 70 71 69 68 69 75 74 68 64 67 67 64 61 65 63 69 72 70 73 66 63
65 63 62 63 68 71 70 70 69 71 72 73 66 66 73 76 75 78 70 70 61 55
62 63 66 68 68 69 71 74 78 74 75 70 73 79 76 74 80 78 67 58 59 49
68 69 68 69 70 74 76 79 77 79 75 80 79 77 83 77 76 72 61 57 48 43
72 69 69 73 75 77 79 85 88 81 80 77 78 78 75 73 64 65 58 49 47 46
69 72 75 75 76 79 85 89 88 83 80 78 73 67 66 58 54 52 50 46 48 51
75 74 72 74 78 83 87 92 83 79 75 65 60 57 52 48 48 47 50 50 52 53
75 78 78 93 97 93 92 82 80 71 64 56 48 43 44 45 46 47 49 53 55 53
91 97 91 91 96 90 75 69 64 63 52 44 38 37 42 45 49 50 50 56 56 54
93 91 86 85 81 75 63 57 53 45 34 31 35 40 44 48 49 54 54 58 60 59

GFSNIL_prec_cthk_027.txt.gz
RH
59 65 69 72 75 72 73 71 84 92 89 70 51 62 57 53 59 59 64 66 62 60
60 68 70 74 77 78 76 74 89 89 76 57 62 59 55 61 64 65 60 62 60 56
61 67 71 74 76 74 76 78 81 75 68 69 64 65 64 68 66 63 61 59 62 66
68 70 72 73 73 71 73 71 69 71 67 70 70 73 78 71 69 66 66 68 66 64
78 78 76 73 67 68 70 72 74 73 74 77 82 83 70 66 65 69 68 62 59 65
81 76 75 68 67 71 72 73 75 79 83 82 84 71 69 72 68 69 64 66 66 59
70 76 70 69 72 72 71 76 79 79 78 82 70 69 64 61 63 60 64 65 63 55
72 69 70 72 70 73 77 77 75 75 89 85 82 76 67 62 61 64 63 58 51 47
70 72 73 72 76 77 77 77 80 87 91 89 84 80 62 60 63 56 50 47 47 45
72 74 75 77 78 82 82 90 89 95 90 82 80 61 58 55 45 44 43 46 43 43
74 76 78 82 84 83 89 93 86 85 77 72 60 54 44 36 38 41 44 44 44 46
74 80 88 84 86 87 90 90 85 78 68 55 45 38 31 32 38 43 45 44 47 48
87 87 88 90 91 89 87 85 71 66 46 39 31 26 29 33 40 46 48 47 50 52
89 91 91 88 84 81 74 61 47 38 34 30 23 27 31 36 45 52 52 54 55 56

GFSNIL_prec_cthk_030.txt.gz
RH
56 65 67 70 73 77 77 80 83 81 70 75 79 77 62 63 59 61 65 62 57 55
58 59 65 77 74 73 78 79 72 71 73 78 74 71 67 66 65 71 64 58 57 53
49 54 64 66 79 82 81 76 71 70 76 77 73 69 70 74 75 64 60 58 58 56
67 74 75 84 84 77 76 77 72 73 74 70 70 75 81 76 64 61 66 67 63 57
79 75 76 75 76 73 73 72 73 75 72 74 75 81 83 73 76 71 68 68 62 47
80 75 71 69 76 76 71 71 74 74 78 80 80 91 85 83 79 71 62 57 48 44
76 65 67 72 74 72 71 74 78 82 84 84 90 97 85 79 70 62 59 52 43 37
68 65 71 77 79 75 74 80 84 86 84 84 95 95 88 84 66 57 56 39 35 42
64 69 76 81 79 77 79 84 86 87 86 90 97 96 90 73 57 55 40 32 35 44
68 79 85 87 83 81 85 91 93 86 90 89 89 85 77 64 51 37 30 31 39 44
74 80 85 82 83 88 92 95 94 96 91 87 87 77 61 44 35 29 29 33 42 45
74 76 81 84 91 94 95 97 97 90 91 80 71 52 40 31 26 27 31 37 44 49
74 81 86 91 89 89 88 89 87 86 70 50 39 34 28 25 28 30 35 42 50 59
81 86 89 89 86 84 86 80 62 49 39 32 28 25 26 28 30 37 44 54 60 65

GFSNIL_prec_cthk_033.txt.gz
RH
62 60 60 63 71 73 81 82 79 82 89 83 78 80 75 80 66 64 67 67 61 54
58 57 58 68 77 81 81 80 86 87 82 81 76 75 81 65 70 76 70 59 58 59
48 51 62 76 76 82 86 82 77 76 79 79 71 70 69 73 82 77 67 65 64 62
59 66 78 83 86 88 91 84 74 73 77 74 79 77 74 81 88 78 75 72 69 64
73 77 83 85 84 88 82 68 73 77 77 76 71 76 81 84 89 80 77 77 73 70
71 74 81 81 87 81 69 72 77 78 73 74 82 84 85 91 89 83 82 76 72 65
60 68 72 76 75 68 71 78 84 81 74 86 83 83 91 97 89 86 79 67 61 53
56 64 60 67 67 76 83 82 82 83 81 85 88 93 97 97 92 88 83 63 52 41
53 56 58 62 74 80 80 88 86 85 89 89 94 97 98 98 94 83 62 46 36 32
46 54 61 66 74 79 81 91 80 87 94 96 97 97 97 98 86 64 41 33 29 30
52 57 62 68 74 81 85 90 90 95 95 96 95 93 91 75 52 33 28 26 28 32
55 60 66 74 79 83 91 96 98 96 92 87 87 76 53 37 29 26 24 26 30 36
59 66 73 78 81 84 88 90 89 83 81 64 50 38 31 29 28 26 26 28 35 44
65 68 72 77 80 81 79 72 60 49 41 36 32 27 25 27 29 32 33 35 40 48

GFSNIL_prec_cthk_036.txt.gz
RH
81 75 68 64 63 65 72 85 86 86 86 81 77 86 80 73 72 71 60 67 74 69
61 54 56 60 60 70 80 89 90 89 88 89 86 74 77 76 74 72 72 78 80 78
50 52 57 65 70 81 88 89 89 93 93 85 84 77 81 78 84 79 84 89 86 82
56 67 72 75 79 82 88 91 93 95 93 83 75 82 78 88 80 83 93 94 88 86
73 79 78 66 68 81 86 88 89 90 87 78 81 80 83 80 87 96 97 95 91 84
74 75 64 58 65 76 78 79 81 80 73 77 84 89 81 84 95 96 97 94 93 92
62 60 62 63 64 74 78 79 78 73 80 80 86 87 85 91 96 98 96 95 94 93
56 55 61 66 67 66 67 71 71 75 80 81 88 94 94 95 95 97 96 96 94 81
46 47 51 50 54 60 63 68 66 79 76 92 97 92 92 97 96 95 94 88 77 54
41 40 43 48 54 57 64 67 68 78 86 89 92 94 97 97 96 86 79 64 49 42
41 47 51 55 59 62 67 72 78 83 89 92 95 96 95 87 73 58 47 40 36 34
43 47 52 57 62 67 72 77 81 83 84 85 82 75 62 48 41 37 34 34 31 31
51 55 60 62 66 67 68 71 72 72 67 60 48 43 36 35 34 34 33 32 33 34
56 57 59 62 62 61 60 57 50 42 39 36 36 34 33 34 36 37 36 36 35 39

GFSNIL_prec_cthk_039.txt.gz
RH
78 77 79 79 90 80 74 67 67 75 91 91 90 88 87 85 83 81 79 77 75 88
74 57 58 58 65 67 66 69 76 90 91 91 90 94 93 86 86 82 85 78 86 83
64 51 52 57 67 71 76 80 85 89 91 91 94 91 88 84 84 78 82 89 89 88
53 52 50 65 73 73 63 60 69 81 82 85 84 88 87 82 75 85 93 93 93 96
60 52 61 72 75 67 59 60 63 68 82 86 85 81 79 72 80 89 96 92 95 95
52 67 73 77 80 70 65 72 73 76 80 81 77 77 72 75 79 90 96 97 95 96
62 69 77 73 65 66 72 71 73 74 73 76 82 77 77 94 92 98 92 94 95 95
65 64 61 62 64 65 67 72 66 70 76 75 74 73 87 94 87 85 89 94 93 92
58 58 61 59 55 56 56 57 65 71 74 76 80 77 81 92 86 87 90 91 85 73
52 49 46 45 44 47 52 57 61 63 67 71 77 82 86 85 82 82 78 71 60 53
42 41 39 42 46 48 53 57 61 65 70 75 80 77 77 75 71 65 57 47 44 43
34 37 41 44 48 53 56 60 65 68 69 69 69 66 61 56 48 43 40 39 40 42
40 43 47 49 53 56 57 57 58 57 57 53 46 49 47 43 43 39 40 39 38 37
45 48 52 52 53 53 52 53 53 49 47 46 46 48 46 43 40 38 33 32 30 30

GFSNIL_prec_cthk_042.txt.gz
RH
66 71 71 65 67 76 77 79 82 82 78 73 84 89 95 92 94 91 90 90 90 85
66 63 69 52 53 56 57 67 78 82 84 89 87 92 88 91 89 87 84 86 83 77
62 60 69 52 48 49 62 73 76 67 62 66 73 76 81 85 87 87 84 74 74 80
68 64 60 52 50 52 66 72 69 65 64 66 70 71 74 79 77 81 76 74 77 86
75 70 54 60 58 69 71 75 74 66 65 66 70 74 76 84 81 80 80 75 92 97
76 65 65 65 72 68 74 68 63 60 62 67 73 76 75 78 83 86 78 85 90 93
69 66 60 66 69 67 65 64 64 66 66 67 71 73 71 84 79 77 85 85 86 88
58 70 74 71 68 64 65 67 67 67 65 64 66 71 76 73 83 75 81 87 88 87
68 70 72 68 63 64 63 57 54 55 55 63 63 69 71 77 78 84 84 85 80 74
67 62 59 55 51 48 47 46 49 52 58 63 64 68 75 80 82 79 75 69 58 55
57 52 47 43 42 41 44 46 50 56 60 64 67 72 73 71 68 61 57 55 47 43
46 41 38 36 38 43 47 51 55 58 60 61 61 62 59 54 49 47 43 40 40 39
37 35 37 41 44 47 52 55 58 57 55 52 47 46 45 43 45 43 39 34 32 30
36 39 42 44 48 49 51 53 52 50 49 48 47 47 48 48 44 36 32 30 27 26

GFSNIL_prec_cthk_045.txt.gz
RH
61 68 66 66 61 53 60 73 76 79 81 83 89 87 84 82 84 88 84 84 85 89
60 62 60 66 67 52 53 57 65 77 78 81 75 64 64 65 72 73 76 80 80 75
62 62 66 62 70 59 53 53 60 76 80 77 72 65 67 73 71 73 75 78 84 75
73 65 71 62 72 59 60 57 65 78 79 80 69 64 63 69 70 74 75 85 96 77
75 87 92 82 81 64 66 64 75 73 72 68 68 66 65 68 72 68 81 75 75 91
86 91 88 83 75 64 67 73 73 69 64 65 65 67 68 69 70 65 85 70 90 82
59 67 73 70 64 67 75 71 68 63 65 67 68 64 66 62 73 66 78 74 78 85
51 61 59 55 62 69 69 69 63 65 65 64 59 56 62 64 67 70 79 75 84 86
52 55 57 62 69 72 71 62 61 66 56 49 55 59 60 68 69 74 76 81 77 79
51 55 61 66 70 66 65 61 51 47 48 53 55 60 65 69 70 72 75 72 65 54
55 67 68 65 60 51 44 42 43 48 51 53 58 61 65 70 71 67 59 47 47 48
62 60 56 50 46 41 39 41 44 47 49 53 57 63 64 63 56 49 47 49 48 45
51 48 45 42 37 35 38 42 45 48 51 54 58 59 55 50 48 49 50 50 43 38
44 44 40 37 37 40 44 48 50 50 50 52 53 52 52 52 53 53 49 44 41 37

GFSNIL_prec_cthk_048.txt.gz
RH
57 60 63 65 66 60 60 64 77 85 86 90 85 87 88 87 75 74 69 65 77 76
62 62 67 67 71 71 58 62 66 62 70 77 78 78 77 77 72 68 71 72 70 71
59 66 67 75 68 68 72 62 60 58 61 71 79 81 85 77 67 68 66 69 70 65
66 70 72 80 84 80 85 75 75 69 63 71 74 79 77 67 65 63 65 66 67 70
70 76 81 78 91 95 95 80 82 77 71 72 72 69 64 66 66 65 64 70 60 72
72 83 80 76 91 79 67 79 82 77 75 72 68 61 64 67 66 64 69 69 63 73
77 68 67 76 86 72 64 68 82 77 74 76 65 61 65 68 67 65 65 64 63 72
52 53 70 68 66 62 62 73 74 77 77 70 61 63 65 64 62 55 61 62 70 71
57 64 68 65 64 64 65 72 75 72 68 60 61 62 58 53 55 61 61 69 74 77
63 62 61 61 61 64 70 74 73 69 64 62 55 47 50 57 60 63 69 74 75 77
56 57 59 59 66 70 70 74 70 64 53 46 47 53 58 60 62 66 73 78 77 62
58 64 66 70 74 76 74 63 54 51 47 48 53 56 57 61 65 70 72 65 58 58
55 60 67 68 64 56 52 49 46 44 45 49 53 55 59 62 63 61 59 61 60 59
55 58 54 47 46 45 46 45 39 41 45 49 54 57 59 55 57 60 63 65 61 55